sat.trackr.live / text

‹ back to catalog

TYVAK-0130

NORAD 48606 · 2021-041BF

PAYLOAD ACTIVE UNKNOWN

§ Identity

Operator
Country
US
Launch date
2021-05-15
Launch site
AFETR
Launch vehicle
Mass (kg)
RCS (m²)

External: N2YO · Heavens-Above · Gunter

§ Orbital elements

Epoch: 2026-09-12T14:52:56.760096Z

Period
94.20 min
Inclination
52.9967°
Eccentricity
0.0011010
Mean motion
15.28632649 rev/d
Perigee alt
472.3 km
Apogee alt
487.4 km
Semi-major
6,858.0 km
B*
1.7624e-4
RAAN
339.7011°
Arg perigee
83.7304°
Mean anomaly
276.4948°
Rev number
29,375

§ Raw data

TYVAK-01301 48606U 21041BF  26255.62010139  .00004626  00000+0  17624-3 0  99942 48606  52.9967 339.7011 0011010  83.7304 276.4948 15.28632649293758

JSON: /api/v1/satellites/48606 · /tle

For live sub-satellite position, see the globe view (requires WebGL).

§ Visibility from observer

Set your observer location to see the next 7 days of passes ≥ 10°. The values pass through the URL so the page stays shareable.

No JS? Fill the form by hand. The geolocation button needs JavaScript.

§ Radio — SatNOGS DB

ModeDescriptionDownlinkUplink
FSK Downlink 400.781 MHz
FM Possible Downlink 400.765 MHz
BPSK S-band telemetry 2.202 GHz

3 transmitters · refreshed weekly from db.satnogs.org